Temp
-9 -9 -8 -8 -8 -9 -9 -9 -10 -10 -10 -10 -10 -10 -10 -10 -10 -11 -11 -11 -11 -10 -10 -10 -10 -10 -10 -10 -10 -10 -10 -9 -9 -9 -8 -8 -7 -7 -7 -7 -8 -8 -8 -8 -8
-9 -9 -9 -8 -8 -8 -9 -9 -10 -11 -10 -10 -10 -10 -10 -10 -10 -11 -11 -11 -11 -10 -10 -10 -10 -10 -10 -9 -9 -9 -9 -9 -8 -8 -8 -8 -7 -7 -7 -7 -7 -8 -8 -8 -8
-9 -9 -8 -8 -8 -8 -9 -9 -10 -10 -10 -10 -10 -10 -10 -10 -10 -10 -11 -11 -11 -10 -10 -10 -9 -10 -10 -9 -9 -9 -9 -9 -8 -8 -8 -7 -7 -7 -7 -7 -8 -8 -8 -8 -8
-8 -8 -8 -8 -8 -8 -9 -9 -9 -10 -10 -10 -10 -10 -10 -10 -10 -10 -11 -11 -11 -10 -10 -10 -10 -9 -9 -9 -9 -9 -9 -9 -9 -8 -7 -7 -7 -7 -7 -7 -8 -8 -8 -8 -8
-8 -8 -8 -8 -9 -9 -9 -9 -9 -9 -10 -10 -10 -10 -10 -10 -10 -10 -10 -11 -11 -11 -10 -10 -10 -9 -9 -9 -9 -9 -9 -9 -9 -8 -7 -7 -7 -7 -7 -7 -8 -8 -8 -8 -8
-8 -8 -9 -9 -9 -9 -9 -9 -9 -9 -9 -10 -10 -10 -10 -10 -10 -10 -10 -11 -11 -11 -10 -10 -10 -9 -9 -8 -8 -8 -8 -8 -8 -7 -7 -7 -7 -7 -7 -7 -7 -7 -8 -8 -7
-8 -8 -8 -9 -9 -9 -9 -9 -9 -9 -9 -9 -9 -9 -10 -10 -10 -10 -10 -10 -11 -11 -10 -10 -9 -9 -9 -8 -8 -8 -8 -8 -7 -7 -7 -7 -7 -7 -7 -7 -7 -7 -7 -7 -7
-8 -8 -9 -9 -9 -9 -9 -9 -9 -9 -9 -9 -9 -9 -9 -9 -10 -10 -10 -10 -10 -10 -10 -9 -9 -9 -9 -8 -8 -8 -8 -8 -7 -7 -7 -7 -7 -7 -7 -7 -7 -7 -7 -6 -6
-8 -8 -8 -9 -9 -9 -9 -9 -9 -9 -9 -9 -9 -9 -9 -9 -9 -9 -9 -10 -10 -10 -9 -9 -9 -9 -8 -8 -8 -8 -8 -8 -8 -8 -7 -7 -7 -7 -7 -7 -7 -7 -6 -6 -6
-8 -8 -8 -9 -9 -9 -9 -9 -9 -9 -9 -8 -8 -8 -9 -9 -9 -9 -9 -9 -9 -9 -9 -9 -8 -8 -8 -8 -7 -7 -8 -8 -8 -8 -7 -7 -7 -7 -6 -6 -6 -6 -6 -6 -6
-8 -8 -8 -9 -9 -9 -9 -9 -8 -8 -8 -8 -8 -8 -9 -8 -8 -8 -8 -9 -9 -9 -8 -8 -8 -8 -8 -8 -8 -8 -8 -8 -7 -7 -7 -7 -7 -6 -6 -6 -6 -6 -6 -6 -6
-8 -8 -8 -8 -9 -9 -9 -8 -8 -8 -8 -8 -8 -8 -8 -8 -8 -8 -8 -8 -8 -8 -8 -8 -8 -8 -8 -8 -7 -7 -7 -7 -7 -7 -7 -7 -6 -6 -6 -6 -6 -6 -6 -6 -6
-8 -8 -8 -8 -8 -9 -9 -8 -8 -8 -8 -8 -8 -8 -8 -8 -8 -8 -8 -8 -8 -8 -8 -8 -8 -8 -8 -7 -7 -7 -7 -7 -7 -7 -6 -6 -6 -6 -6 -6 -6 -6 -5 -6 -6
-8 -8 -8 -8 -8 -8 -8 -8 -8 -8 -8 -8 -8 -8 -8 -8 -7 -8 -8 -8 -8 -8 -8 -8 -8 -8 -8 -8 -7 -7 -7 -7 -7 -7 -6 -6 -6 -6 -6 -5 -5 -5 -5 -5 -5
-7 -7 -8 -8 -8 -8 -8 -8 -8 -8 -7 -7 -8 -8 -8 -8 -8 -8 -8 -8 -8 -8 -8 -7 -8 -8 -8 -7 -8 -7 -7 -7 -7 -6 -6 -6 -5 -6 -6 -5 -5 -5 -5 -5 -5
-7 -8 -7 -8 -8 -8 -8 -8 -8 -8 -8 -8 -8 -8 -8 -8 -8 -8 -7 -8 -8 -8 -7 -7 -8 -8 -7 -8 -7 -7 -7 -7 -7 -6 -6 -6 -5 -5 -5 -5 -5 -5 -5 -5 -5
-8 -8 -8 -7 -8 -8 -8 -8 -8 -7 -8 -8 -8 -8 -8 -8 -8 -8 -8 -8 -8 -8 -8 -7 -7 -7 -7 -7 -7 -7 -7 -7 -6 -6 -6 -6 -5 -5 -5 -5 -5 -5 -5 -5 -5
-8 -8 -8 -8 -8 -8 -7 -7 -7 -7 -8 -8 -9 -9 -9 -9 -9 -8 -8 -8 -8 -8 -8 -7 -7 -7 -7 -7 -7 -7 -7 -7 -6 -6 -5 -5 -5 -5 -5 -5 -5 -5 -5 -5 -5
-9 -9 -9 -8 -8 -8 -8 -7 -7 -8 -7 -8 -9 -9 -9 -9 -9 -9 -8 -8 -8 -8 -8 -8 -7 -7 -7 -7 -7 -7 -7 -7 -6 -6 -5 -5 -5 -5 -5 -5 -5 -5 -5 -5 -5
-9 -9 -9 -9 -8 -8 -8 -7 -8 -8 -7 -8 -9 -8 -9 -9 -9 -9 -9 -9 -8 -8 -8 -8 -7 -7 -7 -7 -7 -7 -7 -6 -6 -6 -5 -5 -5 -5 -5 -5 -5 -5 -5 -5 -5
-9 -9 -9 -9 -9 -8 -8 -8 -8 -8 -8 -8 -9 -8 -9 -9 -9 -9 -9 -9 -8 -8 -8 -8 -7 -7 -7 -7 -7 -7 -7 -6 -6 -5 -5 -5 -5 -5 -5 -5 -5 -5 -5 -5 -5
-9 -9 -9 -9 -9 -8 -8 -8 -8 -8 -8 -8 -8 -9 -8 -9 -9 -9 -9 -9 -9 -9 -8 -9 -7 -7 -7 -7 -7 -6 -6 -6 -5 -5 -5 -5 -5 -5 -5 -5 -5 -5 -5 -5 -5
-10 -10 -9 -9 -9 -9 -9 -8 -8 -9 -8 -8 -8 -9 -9 -9 -8 -9 -9 -9 -9 -9 -8 -8 -8 -8 -7 -7 -7 -6 -7 -6 -6 -5 -5 -5 -5 -5 -5 -5 -5 -5 -5 -5 -5
-10 -10 -9 -9 -9 -9 -9 -9 -8 -9 -9 -9 -9 -9 -9 -9 -9 -8 -9 -9 -9 -9 -9 -8 -8 -8 -7 -7 -7 -7 -7 -6 -6 -5 -5 -5 -5 -5 -5 -5 -6 -6 -5 -5 -5
-10 -10 -10 -9 -9 -9 -9 -9 -9 -9 -9 -9 -9 -9 -9 -9 -9 -9 -9 -9 -9 -10 -10 -8 -8 -8 -8 -8 -7 -7 -7 -6 -5 -5 -5 -5 -5 -5 -5 -6 -6 -5 -5 -5 -5
-11 -10 -10 -10 -10 -9 -9 -9 -9 -9 -9 -9 -9 -9 -9 -9 -9 -9 -9 -9 -9 -10 -9 -9 -8 -8 -8 -8 -7 -6 -6 -5 -5 -5 -4 -4 -4 -5 -6 -5 -6 -6 -5 -6 -6
-11 -12 -11 -10 -10 -10 -9 -9 -9 -10 -9 -9 -10 -10 -9 -9 -9 -9 -9 -9 -9 -9 -9 -8 -8 -8 -7 -8 -8 -6 -5 -5 -5 -5 -5 -4 -5 -6 -5 -5 -5 -5 -5 -5 -5
Height
5866 5865 5864 5864 5863 5863 5863 5864 5865 5867 5868 5870 5871 5872 5871 5870 5868 5867 5865 5862 5859 5857 5856 5856 5856 5858 5859 5861 5864 5868 5873 5876 5879 5880 5883 5887 5890 5892 5894 5897 5898 5900 5902 5903 5903
5867 5865 5864 5863 5864 5864 5864 5864 5866 5867 5869 5870 5871 5872 5871 5870 5869 5867 5866 5862 5859 5857 5857 5857 5857 5857 5859 5861 5864 5867 5871 5871 5876 5879 5883 5885 5889 5891 5895 5897 5899 5901 5902 5903 5905
5868 5867 5865 5864 5864 5865 5865 5865 5866 5867 5869 5870 5871 5871 5871 5871 5870 5868 5865 5862 5860 5858 5857 5857 5857 5858 5859 5861 5864 5866 5868 5872 5874 5877 5880 5884 5888 5891 5895 5898 5900 5902 5903 5904 5906
5867 5867 5866 5866 5865 5865 5866 5866 5867 5868 5869 5870 5871 5871 5871 5871 5871 5868 5866 5864 5861 5859 5858 5857 5857 5858 5859 5861 5863 5866 5868 5870 5872 5876 5880 5884 5888 5892 5896 5899 5901 5902 5904 5906 5907
5867 5867 5867 5866 5866 5866 5866 5867 5867 5868 5869 5870 5870 5871 5871 5871 5870 5868 5867 5865 5863 5861 5860 5859 5858 5858 5860 5861 5864 5866 5868 5871 5873 5877 5881 5885 5890 5894 5897 5899 5901 5903 5905 5907 5908
5866 5866 5865 5865 5866 5866 5866 5866 5867 5868 5868 5869 5870 5870 5871 5871 5870 5869 5868 5866 5865 5863 5862 5860 5860 5860 5861 5862 5865 5867 5870 5873 5876 5880 5884 5888 5891 5894 5897 5899 5901 5904 5906 5907 5909
5866 5865 5864 5864 5864 5865 5865 5866 5866 5867 5868 5868 5868 5869 5870 5871 5870 5870 5869 5868 5867 5865 5864 5863 5862 5862 5863 5864 5867 5869 5873 5876 5880 5883 5887 5889 5892 5895 5897 5900 5902 5904 5906 5908 5910
5866 5865 5864 5862 5862 5863 5864 5865 5865 5865 5866 5867 5867 5868 5869 5869 5870 5870 5870 5869 5868 5868 5867 5866 5866 5866 5867 5868 5871 5874 5877 5880 5883 5885 5888 5891 5894 5895 5898 5900 5903 5905 5907 5909 5910
5866 5865 5863 5862 5861 5860 5862 5863 5864 5864 5865 5865 5866 5867 5869 5868 5869 5870 5870 5870 5870 5870 5869 5869 5869 5870 5871 5872 5875 5877 5880 5882 5885 5887 5890 5893 5894 5896 5899 5901 5903 5906 5907 5909 5910
5864 5863 5862 5861 5860 5859 5859 5860 5862 5863 5863 5864 5865 5867 5868 5868 5868 5869 5869 5870 5870 5871 5871 5871 5872 5873 5874 5876 5878 5880 5882 5884 5886 5889 5890 5893 5895 5897 5899 5901 5904 5906 5908 5909 5910
5862 5861 5860 5859 5859 5857 5857 5858 5860 5862 5861 5863 5864 5864 5865 5866 5867 5867 5868 5869 5870 5871 5872 5873 5873 5875 5876 5878 5879 5881 5882 5884 5886 5888 5890 5892 5895 5897 5899 5901 5904 5906 5907 5908 5910
5859 5859 5858 5857 5857 5857 5855 5856 5857 5858 5859 5860 5861 5862 5863 5864 5865 5866 5867 5869 5869 5870 5871 5873 5874 5875 5876 5878 5880 5881 5882 5884 5887 5888 5890 5892 5894 5896 5899 5901 5903 5905 5906 5908 5909
5856 5856 5856 5856 5854 5855 5854 5853 5854 5855 5857 5858 5858 5859 5860 5862 5863 5864 5864 5865 5867 5868 5869 5871 5874 5874 5876 5877 5879 5880 5882 5884 5886 5887 5889 5891 5894 5896 5898 5900 5902 5904 5906 5907 5909
5854 5854 5853 5852 5854 5852 5852 5852 5851 5852 5853 5855 5855 5858 5858 5858 5860 5861 5860 5863 5864 5865 5866 5868 5872 5872 5874 5875 5878 5879 5880 5882 5884 5886 5889 5890 5893 5895 5897 5899 5901 5903 5905 5907 5909
5851 5850 5850 5851 5850 5850 5850 5850 5849 5849 5849 5852 5852 5853 5855 5856 5858 5857 5858 5858 5860 5861 5864 5865 5869 5870 5872 5874 5876 5879 5879 5881 5883 5885 5887 5889 5892 5894 5896 5898 5900 5902 5904 5906 5908
5846 5846 5846 5847 5847 5847 5846 5846 5846 5847 5846 5848 5848 5848 5849 5851 5853 5853 5854 5855 5856 5858 5860 5861 5864 5867 5870 5871 5873 5875 5878 5879 5881 5883 5886 5887 5890 5892 5894 5896 5898 5901 5903 5905 5906
5841 5842 5841 5842 5843 5843 5843 5843 5843 5843 5845 5846 5844 5844 5844 5846 5848 5848 5849 5851 5853 5855 5856 5857 5860 5863 5866 5869 5871 5873 5875 5877 5879 5881 5884 5885 5887 5890 5893 5895 5897 5899 5901 5903 5904
5833 5835 5835 5835 5837 5837 5837 5839 5839 5841 5842 5842 5840 5840 5840 5840 5842 5843 5845 5847 5848 5850 5851 5854 5857 5858 5862 5865 5868 5869 5872 5874 5876 5878 5880 5882 5886 5889 5891 5893 5895 5897 5899 5901 5903
5822 5824 5827 5827 5829 5830 5831 5831 5835 5836 5837 5839 5837 5836 5835 5835 5836 5838 5839 5842 5843 5844 5848 5848 5849 5855 5857 5860 5862 5866 5868 5870 5873 5873 5875 5880 5884 5887 5889 5890 5893 5895 5897 5899 5900
5812 5814 5817 5815 5819 5820 5821 5825 5829 5829 5830 5832 5833 5831 5831 5831 5831 5833 5834 5837 5838 5839 5840 5841 5845 5849 5852 5854 5857 5860 5865 5866 5867 5870 5872 5877 5880 5884 5886 5887 5889 5892 5894 5896 5897
5799 5801 5806 5805 5806 5807 5811 5817 5821 5821 5825 5825 5827 5825 5827 5826 5825 5827 5830 5831 5832 5833 5834 5836 5839 5844 5847 5849 5852 5856 5858 5860 5863 5865 5869 5872 5876 5880 5882 5884 5886 5887 5890 5892 5893
5780 5786 5793 5791 5792 5796 5803 5808 5811 5810 5813 5817 5819 5820 5820 5820 5820 5819 5824 5823 5825 5827 5827 5830 5830 5835 5840 5842 5843 5847 5852 5853 5854 5860 5863 5867 5873 5875 5878 5880 5882 5884 5886 5887 5888
5764 5768 5774 5776 5773 5784 5790 5793 5796 5800 5799 5805 5810 5811 5812 5813 5812 5815 5814 5817 5818 5819 5820 5822 5825 5828 5831 5836 5838 5840 5845 5848 5850 5852 5857 5860 5870 5869 5872 5875 5877 5879 5880 5882 5883
5744 5750 5757 5757 5757 5767 5774 5779 5783 5788 5789 5790 5795 5799 5801 5803 5805 5806 5807 5810 5811 5811 5811 5811 5815 5821 5824 5826 5829 5832 5836 5840 5842 5844 5853 5854 5862 5864 5867 5869 5871 5873 5875 5876 5878
5722 5729 5734 5737 5740 5747 5753 5760 5766 5770 5774 5777 5780 5785 5788 5791 5795 5797 5799 5801 5803 5803 5803 5803 5808 5810 5815 5816 5819 5824 5829 5832 5833 5839 5842 5853 5851 5858 5861 5861 5864 5867 5868 5870 5872
5703 5704 5708 5716 5718 5725 5731 5740 5746 5751 5756 5762 5764 5769 5773 5777 5783 5786 5788 5790 5792 5794 5794 5795 5799 5800 5805 5808 5809 5814 5818 5822 5824 5831 5832 5841 5845 5854 5854 5854 5858 5858 5859 5860 5863
5678 5677 5678 5692 5693 5699 5712 5716 5722 5729 5737 5741 5747 5750 5755 5761 5766 5769 5773 5776 5780 5781 5784 5785 5789 5792 5794 5798 5799 5801 5814 5814 5818 5824 5827 5833 5844 5846 5844 5845 5848 5849 5848 5851 5856
Wind_Speed
8 7 6 5 4 5 5 6 8 10 11 9 6 2 3 7 8 9 12 13 9 5 2 2 4 7 10 13 17 22 24 23 20 20 20 21 15 11 13 13 11 10 11 14 14
8 6 6 3 2 2 4 6 8 10 11 9 6 3 3 6 7 8 11 14 10 6 2 2 5 7 10 13 16 19 22 24 18 16 16 19 15 13 15 13 11 12 14 14 14
9 8 6 3 1 2 3 5 7 11 12 10 7 4 3 6 6 8 10 13 10 7 4 1 5 7 8 10 13 16 19 15 18 17 19 19 16 18 16 12 12 12 14 13 13
8 9 8 5 2 3 4 4 7 11 12 11 7 5 3 4 6 7 9 12 11 8 5 2 4 7 9 10 11 12 12 13 15 18 19 18 18 17 14 13 14 14 14 12 11
8 8 8 7 5 4 4 5 6 8 11 11 8 6 4 4 5 6 8 10 12 9 6 4 4 7 9 10 10 11 12 12 15 19 19 20 18 15 14 15 14 14 12 11 9
6 7 8 8 7 6 5 6 7 8 10 11 10 8 5 4 4 4 6 8 10 10 8 6 7 8 9 11 11 11 11 13 17 20 20 17 15 14 14 15 14 13 12 9 7
8 7 6 8 9 8 7 7 7 8 10 11 11 10 7 6 4 3 3 5 7 8 7 8 9 10 12 13 14 16 18 20 20 19 17 15 15 15 15 15 14 12 10 8 7
11 10 9 8 8 9 9 9 9 9 10 11 11 11 9 7 6 4 2 2 4 5 6 7 9 12 14 16 17 19 20 18 17 16 14 14 14 15 15 14 13 10 8 8 7
12 12 11 10 7 9 11 10 11 11 11 11 11 11 8 8 8 6 4 2 1 1 2 5 9 12 14 15 16 17 16 16 14 14 13 13 13 13 13 13 11 10 9 8 7
10 12 12 11 9 8 12 12 12 13 12 12 11 11 10 11 10 9 7 5 4 2 3 5 8 10 12 13 13 14 14 12 12 12 12 12 12 12 13 13 12 10 9 8 8
11 11 11 11 11 10 11 14 13 13 16 14 13 11 12 11 11 12 11 10 8 7 7 8 9 11 11 12 12 12 12 12 10 11 11 12 12 12 12 12 11 10 10 10 9
13 12 12 10 10 11 9 13 14 13 16 16 14 14 13 12 12 13 14 15 13 12 12 13 13 12 13 13 14 14 14 13 12 13 12 12 12 12 12 12 12 11 10 10 9
15 13 13 14 10 11 11 12 15 14 14 18 17 17 17 15 14 14 17 19 18 17 17 17 13 16 16 16 17 16 15 14 13 13 13 12 12 13 13 12 12 12 12 11 10
17 16 14 15 15 13 13 12 15 18 17 16 20 15 17 17 15 15 20 21 22 22 21 20 15 18 17 17 17 17 16 15 15 15 14 13 15 13 14 15 13 13 12 11 11
19 19 18 16 16 17 15 15 14 16 21 20 20 20 19 20 15 17 20 21 24 24 23 23 19 20 19 18 17 16 17 16 17 17 15 16 15 17 15 14 14 14 13 12 12
22 20 20 19 18 18 19 19 19 18 15 14 17 21 22 22 20 20 20 20 23 25 26 25 22 22 20 20 19 19 18 18 19 18 17 17 17 17 16 17 16 14 14 14 13
31 28 27 23 21 20 20 22 23 21 18 14 14 17 22 25 22 23 24 22 23 24 27 27 25 23 23 21 21 21 21 21 20 19 16 18 21 19 17 18 16 16 16 16 15
36 34 34 33 28 28 25 23 23 22 22 19 20 20 20 21 27 24 27 25 24 23 27 26 27 27 24 24 22 23 24 23 21 21 21 21 20 18 17 18 17 18 18 17 16
40 40 39 39 37 34 33 31 24 24 24 18 24 24 22 23 26 27 26 26 27 26 24 28 30 27 27 25 27 26 24 25 21 22 24 21 23 20 19 19 19 19 18 19 19
43 43 43 46 42 42 40 36 30 29 24 22 28 29 25 24 25 29 27 26 29 29 28 32 30 27 28 29 29 27 26 28 26 24 25 24 23 21 19 21 22 21 19 19 20
53 51 48 49 48 49 46 41 36 36 30 27 28 33 30 28 25 29 31 29 31 32 33 33 34 30 30 31 30 30 29 30 28 28 26 25 26 22 21 22 23 23 21 20 21
60 60 56 58 60 55 50 47 43 43 39 35 31 33 33 34 29 30 30 33 33 34 36 36 39 36 32 34 35 34 32 33 33 32 32 28 28 24 22 23 23 23 21 21 21
63 62 60 62 66 61 57 56 53 50 48 41 37 35 36 37 38 31 34 34 34 36 39 39 40 38 39 36 36 36 34 33 32 33 33 33 26 28 26 24 26 26 24 24 23
72 69 66 69 71 66 62 61 60 56 54 51 44 41 41 40 40 37 37 33 36 37 40 43 44 41 40 40 39 40 36 36 35 41 35 36 29 30 27 28 30 30 29 29 27
78 76 76 75 73 70 69 66 66 64 61 58 56 48 45 44 42 43 42 38 39 40 39 44 44 45 43 43 43 40 38 38 41 39 41 31 39 33 31 33 33 31 32 33 31
84 84 83 80 80 78 76 74 69 69 70 65 64 59 55 51 48 44 47 46 43 43 44 45 44 46 46 45 46 43 42 43 46 41 49 42 40 29 31 35 33 33 36 38 34
89 85 86 86 85 82 78 81 81 76 72 74 68 67 64 59 56 54 52 53 51 49 49 49 47 47 47 46 48 48 42 45 44 41 43 44 34 29 37 37 36 36 41 41 35
Wind_Direction
330 339 341 319 276 244 219 203 197 192 184 191 195 223 337 353 359 1 1 360 5 6 11 196 173 190 205 201 199 201 205 216 222 224 222 209 216 208 185 168 156 135 127 124 118
330 341 346 336 288 229 197 198 196 192 186 190 198 233 328 348 357 5 1 6 11 10 10 185 179 166 179 189 194 195 202 214 216 219 198 201 206 202 175 166 155 142 136 127 120
329 338 342 334 253 218 190 183 185 187 194 201 204 226 299 344 352 8 9 13 15 18 24 107 182 178 170 177 187 198 211 215 217 210 190 193 196 179 168 163 156 143 134 128 120
314 334 334 324 282 226 202 197 191 196 201 205 214 228 267 332 349 8 16 14 21 27 39 75 153 171 177 178 183 190 188 194 198 189 188 187 178 169 163 160 156 147 142 135 131
336 317 319 316 295 261 230 224 214 209 210 213 220 235 258 315 337 360 15 18 23 32 48 87 130 150 162 171 176 177 174 171 166 164 169 166 164 163 164 163 153 148 144 142 137
355 338 308 300 294 274 251 242 236 230 225 222 231 234 256 289 316 347 11 18 19 30 48 80 106 127 140 153 163 170 172 166 156 152 152 157 160 163 163 157 156 152 151 148 134
340 344 328 304 282 275 257 246 243 241 242 237 237 246 255 264 276 317 357 20 21 30 52 76 98 113 123 129 136 136 137 140 144 147 152 159 163 161 159 159 158 157 153 148 148
329 330 327 315 283 263 258 249 244 245 245 249 245 246 250 251 256 274 301 358 25 32 60 88 104 114 121 128 133 135 139 144 149 155 158 162 168 163 164 164 163 163 159 162 157
315 321 323 316 303 266 254 249 250 248 250 250 252 248 242 248 247 255 257 266 336 29 88 118 127 130 134 140 145 146 151 155 160 165 168 171 173 173 173 171 171 172 177 174 168
293 308 314 317 308 281 252 249 250 255 253 254 257 254 248 247 245 244 244 239 238 233 197 165 159 155 155 155 163 161 170 176 177 184 187 183 183 179 180 180 182 184 184 178 169
275 283 298 307 308 294 263 248 248 254 257 256 254 254 252 248 251 245 243 236 232 229 221 208 192 183 179 181 189 192 197 202 201 207 203 197 190 188 190 191 192 190 188 180 169
269 272 278 290 297 300 271 249 253 252 262 260 256 257 255 256 253 251 243 238 235 232 229 225 215 207 205 206 210 214 218 220 218 220 218 207 201 199 197 202 201 198 190 184 173
269 268 268 275 281 287 284 255 253 256 257 267 260 258 256 262 263 253 248 240 236 235 234 233 224 230 225 222 223 227 227 229 226 226 220 213 213 208 210 208 210 200 190 183 177
272 272 267 266 270 274 279 277 259 256 255 253 265 262 265 265 264 259 251 243 237 235 237 238 227 233 230 231 230 231 231 228 227 227 219 228 222 224 217 213 210 203 194 188 188
268 275 273 264 267 268 270 273 271 265 265 260 257 267 268 269 262 259 249 246 240 237 239 242 232 236 234 233 232 228 229 227 226 226 220 232 231 221 222 220 215 206 199 198 199
267 269 277 273 266 265 268 267 269 269 267 281 270 262 263 265 261 251 246 250 246 240 238 241 233 233 233 230 231 232 232 231 228 228 225 232 236 226 227 223 215 211 208 208 211
265 267 269 269 268 266 263 266 267 269 279 270 274 272 265 260 259 251 249 246 249 243 239 236 231 231 229 230 231 233 233 233 231 233 232 237 239 234 235 228 224 221 218 219 222
262 263 263 268 265 266 265 261 264 273 268 268 271 269 272 259 254 252 248 246 250 246 243 236 233 228 230 231 233 236 235 236 236 235 235 238 238 242 234 234 230 224 224 225 230
259 262 265 264 264 263 264 262 267 264 266 263 264 265 267 268 254 251 247 247 246 250 244 240 235 229 231 234 235 233 235 238 234 237 238 237 239 237 235 237 235 229 230 231 236
260 259 261 264 263 263 263 266 267 266 265 258 255 262 263 262 260 248 246 245 245 246 243 241 237 236 236 236 239 236 235 236 238 238 242 242 241 240 240 238 234 230 235 240 246
262 261 259 260 263 263 264 266 264 265 264 259 248 257 260 261 257 251 248 245 245 244 244 244 241 238 235 238 238 235 231 236 237 241 242 243 239 239 240 236 231 229 239 246 250
260 260 258 260 260 262 264 267 262 262 262 261 255 249 256 257 251 248 249 249 245 243 243 243 243 242 238 233 235 231 228 232 235 235 240 241 240 238 239 236 233 237 242 247 253
261 259 258 258 259 259 261 261 261 259 261 259 258 251 248 251 257 249 247 245 242 243 242 243 243 243 240 234 234 231 230 231 235 239 237 239 232 243 239 237 238 242 244 250 254
265 262 260 261 261 260 258 258 258 258 259 260 254 251 250 248 250 253 249 245 244 245 243 241 243 242 241 237 232 232 226 229 232 239 237 241 238 239 242 244 244 247 250 253 256
264 264 263 261 261 262 260 256 257 256 256 256 257 251 250 251 248 248 251 247 244 244 245 243 240 242 240 241 233 232 230 231 238 241 243 236 241 242 242 244 246 252 257 260 261
262 262 262 260 260 258 257 260 258 256 255 253 255 254 250 250 249 246 247 248 245 246 247 245 241 241 240 238 239 229 228 231 237 239 242 240 242 246 251 254 252 254 257 259 258
263 260 258 257 256 256 255 256 258 256 254 254 251 251 252 250 246 246 243 243 243 242 244 245 244 241 240 241 240 236 230 236 240 243 249 248 251 244 248 252 258 257 257 261 265